HK36E EDDK-LFPO

Flight info

Callsign HK36E
Flight time 1h 13m
Altitude 24000
Route NVO KENUM TOLVU RENSA RENS9E
Aircraft BE20/M-SDFGRWY/LB1

Departure

Time 2026-05-07 14:46
Airport Cologne Bonn Airport (EDDK)

Arrival

Time 2026-05-07 15:59
Airport Paris-Orly Airport (LFPO)
Time Latitude Longitude Altitude Speed Heading
2026-05-07 14:35 50.86835 7.11973 228 ft 0 kts 223°
2026-05-07 14:40 50.86830 7.12001 228 ft 8 kts 79°
2026-05-07 14:40 50.86823 7.12092 227 ft 12 kts 143°
2026-05-07 14:40 50.86751 7.12123 227 ft 16 kts 167°
2026-05-07 14:41 50.86612 7.12180 227 ft 20 kts 166°
2026-05-07 14:41 50.86523 7.12215 227 ft 14 kts 166°
2026-05-07 14:41 50.86398 7.12265 227 ft 20 kts 162°
2026-05-07 14:41 50.86330 7.12296 227 ft 6 kts 167°
2026-05-07 14:42 50.86271 7.12316 229 ft 12 kts 168°
2026-05-07 14:42 50.86174 7.12347 237 ft 14 kts 169°
2026-05-07 14:42 50.86078 7.12388 238 ft 9 kts 162°
2026-05-07 14:42 50.86008 7.12415 240 ft 11 kts 169°
2026-05-07 14:43 50.85965 7.12540 238 ft 18 kts 102°
2026-05-07 14:43 50.85938 7.12742 239 ft 22 kts 101°
2026-05-07 14:43 50.85907 7.12936 240 ft 17 kts 105°
2026-05-07 14:43 50.85877 7.13139 246 ft 21 kts 102°
2026-05-07 14:44 50.85848 7.13347 251 ft 21 kts 101°
2026-05-07 14:44 50.85821 7.13506 256 ft 12 kts 102°
2026-05-07 14:44 50.85808 7.13602 260 ft 9 kts 102°
2026-05-07 14:44 50.85808 7.13713 262 ft 9 kts 79°
2026-05-07 14:45 50.85831 7.13805 264 ft 4 kts 43°
2026-05-07 14:45 50.85862 7.13847 266 ft 4 kts 25°
2026-05-07 14:45 50.85878 7.13835 265 ft 5 kts 316°
2026-05-07 14:45 50.86026 7.13623 252 ft 65 kts 319°
2026-05-07 14:46 50.86519 7.12906 327 ft 117 kts 318°
2026-05-07 14:46 50.87173 7.11879 514 ft 147 kts 317°
2026-05-07 14:46 50.87921 7.10776 1182 ft 144 kts 317°
2026-05-07 14:46 50.88666 7.09687 1919 ft 146 kts 318°
2026-05-07 14:47 50.89404 7.08601 2639 ft 145 kts 318°
2026-05-07 14:47 50.90136 7.07498 3334 ft 146 kts 318°
2026-05-07 14:47 50.90884 7.06380 3960 ft 149 kts 319°
2026-05-07 14:47 50.91375 7.05630 4429 ft 147 kts 314°
2026-05-07 14:48 50.91634 7.03511 5218 ft 162 kts 254°
2026-05-07 14:48 50.90915 7.02141 5857 ft 165 kts 220°
2026-05-07 14:48 50.90345 7.01318 6271 ft 164 kts 230°
2026-05-07 14:48 50.89715 6.99825 6869 ft 162 kts 250°
2026-05-07 14:49 50.89336 6.98140 7466 ft 163 kts 254°
2026-05-07 14:49 50.88989 6.96414 8069 ft 165 kts 254°
2026-05-07 14:49 50.88643 6.94699 8660 ft 166 kts 253°
2026-05-07 14:49 50.88286 6.92944 9265 ft 169 kts 253°
2026-05-07 14:50 50.87919 6.91145 9892 ft 170 kts 252°
2026-05-07 14:50 50.87558 6.89379 10462 ft 170 kts 253°
2026-05-07 14:50 50.87193 6.87591 11050 ft 170 kts 253°
2026-05-07 14:50 50.86829 6.85816 11661 ft 169 kts 253°
2026-05-07 14:51 50.86465 6.84035 12245 ft 170 kts 253°
2026-05-07 14:51 50.86101 6.82262 12899 ft 168 kts 254°
2026-05-07 14:51 50.85744 6.80525 13603 ft 165 kts 254°
2026-05-07 14:51 50.85387 6.78783 14166 ft 167 kts 253°
2026-05-07 14:52 50.85030 6.77047 14736 ft 166 kts 253°
2026-05-07 14:52 50.84668 6.75290 15219 ft 167 kts 253°
2026-05-07 14:52 50.84308 6.73541 15698 ft 170 kts 253°
2026-05-07 14:52 50.83943 6.71759 16181 ft 169 kts 253°
2026-05-07 14:53 50.83582 6.70023 16739 ft 166 kts 252°
2026-05-07 14:53 50.83214 6.68234 16996 ft 182 kts 252°
2026-05-07 14:53 50.82798 6.66218 17016 ft 203 kts 252°
2026-05-07 14:53 50.82341 6.64007 17017 ft 218 kts 252°
2026-05-07 14:54 50.81780 6.61746 17018 ft 232 kts 249°
2026-05-07 14:54 50.81171 6.59312 17013 ft 243 kts 249°
2026-05-07 14:54 50.80548 6.56792 17015 ft 249 kts 249°
2026-05-07 14:54 50.79905 6.54228 16997 ft 253 kts 248°
2026-05-07 14:55 50.79252 6.51640 16998 ft 255 kts 248°
2026-05-07 14:55 50.78594 6.49028 17000 ft 256 kts 248°
2026-05-07 14:55 50.77933 6.46407 16997 ft 257 kts 248°
2026-05-07 14:55 50.77268 6.43768 17001 ft 258 kts 248°
2026-05-07 14:56 50.76603 6.41138 17003 ft 258 kts 248°
2026-05-07 14:56 50.75936 6.38501 17004 ft 258 kts 248°
2026-05-07 14:56 50.75268 6.35864 17004 ft 259 kts 248°
2026-05-07 14:56 50.74599 6.33226 17004 ft 259 kts 248°
2026-05-07 14:57 50.73931 6.30593 17005 ft 259 kts 248°
2026-05-07 14:57 50.73259 6.27951 17005 ft 259 kts 248°
2026-05-07 14:57 50.72470 6.25416 17003 ft 258 kts 235°
2026-05-07 14:57 50.71255 6.23349 17007 ft 259 kts 219°
2026-05-07 14:58 50.69713 6.21879 17007 ft 259 kts 209°
2026-05-07 14:58 50.68110 6.20590 17004 ft 259 kts 208°
2026-05-07 14:58 50.66519 6.19304 17000 ft 260 kts 209°
2026-05-07 14:58 50.64889 6.17981 17002 ft 261 kts 209°
2026-05-07 14:59 50.63297 6.16693 17001 ft 261 kts 208°
2026-05-07 14:59 50.61679 6.15387 17000 ft 264 kts 208°
2026-05-07 14:59 50.60024 6.14050 17009 ft 270 kts 209°
2026-05-07 14:59 50.58343 6.12693 17013 ft 273 kts 209°
2026-05-07 15:00 50.56645 6.11326 17012 ft 275 kts 208°
2026-05-07 15:00 50.54937 6.09951 17008 ft 277 kts 208°
2026-05-07 15:00 50.53220 6.08570 17014 ft 278 kts 209°
2026-05-07 15:00 50.51494 6.07182 17011 ft 278 kts 209°
2026-05-07 15:01 50.49774 6.05800 17013 ft 278 kts 209°
2026-05-07 15:01 50.48050 6.04416 17009 ft 278 kts 208°
2026-05-07 15:01 50.46322 6.03030 17009 ft 279 kts 209°
2026-05-07 15:01 50.44595 6.01646 17011 ft 279 kts 208°
2026-05-07 15:02 50.42864 6.00260 17012 ft 279 kts 208°
2026-05-07 15:02 50.41132 5.98874 17007 ft 279 kts 208°
2026-05-07 15:02 50.39397 5.97488 17007 ft 279 kts 208°
2026-05-07 15:02 50.37665 5.96105 17006 ft 279 kts 208°
2026-05-07 15:03 50.35938 5.94726 17007 ft 279 kts 208°
2026-05-07 15:03 50.34205 5.93345 17006 ft 279 kts 208°
2026-05-07 15:03 50.32472 5.91964 17007 ft 279 kts 208°
2026-05-07 15:03 50.30741 5.90586 17007 ft 279 kts 208°
2026-05-07 15:04 50.29007 5.89207 17017 ft 279 kts 208°
2026-05-07 15:04 50.27276 5.87831 17018 ft 279 kts 208°
2026-05-07 15:04 50.25546 5.86457 17014 ft 279 kts 208°
2026-05-07 15:04 50.23815 5.85084 17014 ft 279 kts 208°
2026-05-07 15:05 50.22083 5.83711 17014 ft 279 kts 208°
2026-05-07 15:05 50.20349 5.82337 17015 ft 279 kts 208°
2026-05-07 15:05 50.18639 5.80983 17016 ft 279 kts 208°
2026-05-07 15:05 50.16908 5.79614 17015 ft 279 kts 208°
2026-05-07 15:06 50.15173 5.78244 17015 ft 279 kts 208°
2026-05-07 15:06 50.13441 5.76876 17016 ft 279 kts 208°
2026-05-07 15:06 50.11705 5.75507 17016 ft 280 kts 208°
2026-05-07 15:06 50.09964 5.74134 17016 ft 280 kts 208°
2026-05-07 15:07 50.08226 5.72765 17014 ft 280 kts 208°
2026-05-07 15:07 50.06493 5.71401 17013 ft 279 kts 208°
2026-05-07 15:07 50.04758 5.70037 17008 ft 280 kts 208°
2026-05-07 15:07 50.03020 5.68671 17008 ft 280 kts 208°
2026-05-07 15:08 50.01284 5.67308 17008 ft 280 kts 208°
2026-05-07 15:08 49.99540 5.65940 17008 ft 280 kts 208°
2026-05-07 15:08 49.97800 5.64577 17010 ft 281 kts 208°
2026-05-07 15:08 49.96052 5.63208 17010 ft 281 kts 208°
2026-05-07 15:09 49.94309 5.61844 17010 ft 280 kts 208°
2026-05-07 15:09 49.92566 5.60481 17010 ft 280 kts 208°
2026-05-07 15:09 49.90826 5.59122 17013 ft 280 kts 208°
2026-05-07 15:09 49.89082 5.57760 17014 ft 280 kts 208°
2026-05-07 15:10 49.87341 5.56402 17014 ft 281 kts 208°
2026-05-07 15:10 49.85595 5.55041 17013 ft 281 kts 208°
2026-05-07 15:10 49.83850 5.53683 17012 ft 281 kts 208°
2026-05-07 15:10 49.82107 5.52326 17007 ft 281 kts 208°
2026-05-07 15:11 49.80361 5.50969 17008 ft 280 kts 208°
2026-05-07 15:11 49.78617 5.49615 17008 ft 280 kts 208°
2026-05-07 15:11 49.76871 5.48259 17009 ft 281 kts 208°
2026-05-07 15:11 49.75128 5.46907 17009 ft 281 kts 207°
2026-05-07 15:12 49.73402 5.45570 17009 ft 281 kts 207°
2026-05-07 15:12 49.71632 5.44200 17009 ft 281 kts 207°
2026-05-07 15:12 49.69907 5.42865 17009 ft 281 kts 207°
2026-05-07 15:12 49.68164 5.41517 17009 ft 281 kts 207°
2026-05-07 15:13 49.66417 5.40168 17007 ft 280 kts 208°
2026-05-07 15:13 49.64693 5.38784 17009 ft 278 kts 213°
2026-05-07 15:13 49.63219 5.36874 16960 ft 279 kts 228°
2026-05-07 15:13 49.62132 5.34420 16700 ft 276 kts 244°
2026-05-07 15:14 49.61492 5.31660 16438 ft 271 kts 254°
2026-05-07 15:14 49.60976 5.28874 16178 ft 270 kts 254°
2026-05-07 15:14 49.60454 5.26103 15926 ft 269 kts 253°
2026-05-07 15:14 49.59932 5.23341 15670 ft 268 kts 253°
2026-05-07 15:15 49.59411 5.20579 15418 ft 268 kts 253°
2026-05-07 15:15 49.58894 5.17838 15169 ft 265 kts 253°
2026-05-07 15:15 49.58381 5.15127 14923 ft 262 kts 253°
2026-05-07 15:15 49.57873 5.12440 14672 ft 261 kts 253°
2026-05-07 15:16 49.57362 5.09751 14429 ft 262 kts 253°
2026-05-07 15:16 49.56851 5.07057 14188 ft 263 kts 253°
2026-05-07 15:16 49.56336 5.04351 14004 ft 262 kts 253°
2026-05-07 15:16 49.55830 5.01696 14006 ft 256 kts 253°
2026-05-07 15:17 49.55332 4.99083 14003 ft 253 kts 253°
2026-05-07 15:17 49.54839 4.96504 13998 ft 251 kts 253°
2026-05-07 15:17 49.54347 4.93933 13994 ft 249 kts 253°
2026-05-07 15:17 49.53858 4.91380 13996 ft 248 kts 253°
2026-05-07 15:18 49.53370 4.88835 13994 ft 248 kts 253°
2026-05-07 15:18 49.52932 4.86285 13995 ft 246 kts 255°
2026-05-07 15:18 49.52464 4.83746 13995 ft 247 kts 254°
2026-05-07 15:18 49.51993 4.81203 13994 ft 247 kts 254°
2026-05-07 15:19 49.51535 4.78656 13995 ft 247 kts 255°
2026-05-07 15:19 49.51078 4.76103 13995 ft 247 kts 254°
2026-05-07 15:19 49.50624 4.73586 13995 ft 247 kts 254°
2026-05-07 15:19 49.50162 4.71036 13995 ft 247 kts 254°
2026-05-07 15:20 49.49701 4.68494 13961 ft 249 kts 254°
2026-05-07 15:20 49.49235 4.65922 13701 ft 247 kts 254°
2026-05-07 15:20 49.48777 4.63397 13434 ft 244 kts 254°
2026-05-07 15:20 49.48322 4.60898 13164 ft 241 kts 254°
2026-05-07 15:21 49.47871 4.58419 12899 ft 240 kts 254°
2026-05-07 15:21 49.47422 4.55958 12633 ft 238 kts 254°
2026-05-07 15:21 49.46975 4.53511 12371 ft 237 kts 254°
2026-05-07 15:21 49.46530 4.51078 12113 ft 236 kts 254°
2026-05-07 15:22 49.46086 4.48652 11855 ft 235 kts 254°
2026-05-07 15:22 49.45644 4.46240 11600 ft 234 kts 254°
2026-05-07 15:22 49.45196 4.43799 11367 ft 244 kts 254°
2026-05-07 15:22 49.44727 4.41251 11125 ft 252 kts 254°
2026-05-07 15:23 49.44249 4.38649 11008 ft 251 kts 254°
2026-05-07 15:23 49.43778 4.36091 11007 ft 248 kts 254°
2026-05-07 15:23 49.43310 4.33559 11007 ft 246 kts 254°
2026-05-07 15:23 49.42844 4.31039 11005 ft 245 kts 254°
2026-05-07 15:24 49.42380 4.28531 11005 ft 244 kts 254°
2026-05-07 15:24 49.41922 4.26059 11004 ft 243 kts 254°
2026-05-07 15:24 49.41460 4.23566 11000 ft 243 kts 254°
2026-05-07 15:24 49.40995 4.21067 11000 ft 243 kts 254°
2026-05-07 15:25 49.40530 4.18571 10999 ft 243 kts 254°
2026-05-07 15:25 49.40066 4.16079 10999 ft 243 kts 253°
2026-05-07 15:25 49.39602 4.13592 10999 ft 243 kts 253°
2026-05-07 15:25 49.39137 4.11102 10999 ft 242 kts 253°
2026-05-07 15:26 49.38672 4.08614 10999 ft 242 kts 253°
2026-05-07 15:26 49.38206 4.06128 10999 ft 243 kts 253°
2026-05-07 15:26 49.37737 4.03633 11000 ft 244 kts 253°
2026-05-07 15:26 49.37263 4.01132 11001 ft 244 kts 253°
2026-05-07 15:27 49.36787 3.98634 11002 ft 244 kts 253°
2026-05-07 15:27 49.36181 3.96238 11002 ft 241 kts 242°
2026-05-07 15:27 49.35406 3.93948 11001 ft 242 kts 243°
2026-05-07 15:27 49.34645 3.91650 11004 ft 242 kts 243°
2026-05-07 15:28 49.33882 3.89344 11006 ft 243 kts 243°
2026-05-07 15:28 49.33114 3.87034 11006 ft 244 kts 243°
2026-05-07 15:28 49.32345 3.84725 11008 ft 244 kts 243°
2026-05-07 15:28 49.31574 3.82410 11009 ft 243 kts 243°
2026-05-07 15:29 49.30804 3.80099 11009 ft 243 kts 243°
2026-05-07 15:29 49.30034 3.77792 11009 ft 243 kts 243°
2026-05-07 15:29 49.29263 3.75485 11011 ft 244 kts 243°
2026-05-07 15:29 49.28498 3.73196 11009 ft 244 kts 243°
2026-05-07 15:30 49.27713 3.70857 11009 ft 243 kts 242°
2026-05-07 15:30 49.26721 3.68818 11006 ft 243 kts 224°
2026-05-07 15:30 49.25345 3.67329 11010 ft 244 kts 207°
2026-05-07 15:30 49.23792 3.66310 11010 ft 243 kts 204°
2026-05-07 15:31 49.22231 3.65301 11012 ft 244 kts 204°
2026-05-07 15:31 49.20669 3.64285 11010 ft 244 kts 204°
2026-05-07 15:31 49.19104 3.63268 11013 ft 244 kts 204°
2026-05-07 15:31 49.17535 3.62252 11013 ft 245 kts 204°
2026-05-07 15:32 49.15964 3.61235 11014 ft 245 kts 204°
2026-05-07 15:32 49.14398 3.60221 11015 ft 245 kts 204°
2026-05-07 15:32 49.12833 3.59208 11015 ft 244 kts 204°
2026-05-07 15:32 49.11287 3.58210 11015 ft 244 kts 204°
2026-05-07 15:33 49.09698 3.57183 11012 ft 245 kts 204°
2026-05-07 15:33 49.08129 3.56170 11017 ft 245 kts 204°
2026-05-07 15:33 49.06551 3.55153 11006 ft 247 kts 204°
2026-05-07 15:33 49.04989 3.54146 11004 ft 247 kts 204°
2026-05-07 15:34 49.03411 3.53129 11004 ft 246 kts 204°
2026-05-07 15:34 49.01835 3.52115 10993 ft 246 kts 204°
2026-05-07 15:34 49.00262 3.51103 10999 ft 246 kts 204°
2026-05-07 15:34 48.98688 3.50091 10998 ft 245 kts 204°
2026-05-07 15:35 48.97114 3.49080 10998 ft 245 kts 204°
2026-05-07 15:35 48.95548 3.48075 10999 ft 245 kts 204°
2026-05-07 15:35 48.93974 3.47065 10995 ft 245 kts 204°
2026-05-07 15:35 48.92402 3.46058 10995 ft 245 kts 204°
2026-05-07 15:36 48.90832 3.45052 10994 ft 245 kts 204°
2026-05-07 15:36 48.89793 3.44388 10995 ft 245 kts 204°
2026-05-07 15:36 48.88223 3.43383 10994 ft 244 kts 204°
2026-05-07 15:36 48.86149 3.42056 10994 ft 245 kts 204°
2026-05-07 15:37 48.84579 3.41053 10992 ft 245 kts 204°
2026-05-07 15:37 48.83513 3.40372 10994 ft 245 kts 204°
2026-05-07 15:37 48.81942 3.39370 10993 ft 245 kts 204°
2026-05-07 15:37 48.80365 3.38365 10992 ft 245 kts 204°
2026-05-07 15:38 48.78814 3.37377 10992 ft 245 kts 204°
2026-05-07 15:38 48.77239 3.36374 10990 ft 245 kts 204°
2026-05-07 15:38 48.75665 3.35372 10990 ft 245 kts 204°
2026-05-07 15:38 48.74095 3.34373 10990 ft 245 kts 204°
2026-05-07 15:39 48.72520 3.33373 10989 ft 245 kts 204°
2026-05-07 15:39 48.70951 3.32377 10989 ft 245 kts 204°
2026-05-07 15:39 48.69379 3.31379 10989 ft 245 kts 204°
2026-05-07 15:39 48.67808 3.30382 10989 ft 244 kts 204°
2026-05-07 15:40 48.66245 3.29392 10985 ft 244 kts 204°
2026-05-07 15:40 48.64674 3.28397 10985 ft 244 kts 204°
2026-05-07 15:40 48.63105 3.27403 10984 ft 245 kts 204°
2026-05-07 15:40 48.61551 3.26421 10984 ft 245 kts 204°
2026-05-07 15:41 48.59979 3.25427 10980 ft 244 kts 204°
2026-05-07 15:41 48.58410 3.24436 10980 ft 244 kts 204°
2026-05-07 15:41 48.56845 3.23448 10981 ft 245 kts 204°
2026-05-07 15:41 48.55272 3.22456 10981 ft 245 kts 204°
2026-05-07 15:42 48.53700 3.21465 10982 ft 245 kts 204°
2026-05-07 15:42 48.52124 3.20472 10982 ft 245 kts 204°
2026-05-07 15:42 48.50550 3.19481 10981 ft 245 kts 204°
2026-05-07 15:42 48.48980 3.18493 10980 ft 245 kts 204°
2026-05-07 15:43 48.47407 3.17504 10981 ft 245 kts 204°
2026-05-07 15:43 48.45967 3.16217 10981 ft 241 kts 226°
2026-05-07 15:43 48.45169 3.14034 10992 ft 241 kts 257°
2026-05-07 15:43 48.45196 3.11519 10996 ft 241 kts 279°
2026-05-07 15:44 48.45484 3.09039 10997 ft 241 kts 276°
2026-05-07 15:44 48.45590 3.06512 10997 ft 242 kts 269°
2026-05-07 15:44 48.45654 3.03996 10990 ft 242 kts 281°
2026-05-07 15:44 48.46184 3.01574 10814 ft 244 kts 291°
2026-05-07 15:45 48.46835 2.99232 10569 ft 240 kts 291°
2026-05-07 15:45 48.47416 2.96879 10323 ft 239 kts 287°
2026-05-07 15:45 48.47921 2.94543 10083 ft 237 kts 286°
2026-05-07 15:45 48.48434 2.92178 9830 ft 237 kts 287°
2026-05-07 15:46 48.49484 2.87495 9290 ft 235 kts 287°
2026-05-07 15:46 48.50004 2.85161 9025 ft 235 kts 287°
2026-05-07 15:46 48.50523 2.82830 8766 ft 234 kts 287°
2026-05-07 15:47 48.51039 2.80505 8508 ft 233 kts 287°
2026-05-07 15:47 48.51551 2.78201 8246 ft 232 kts 287°
2026-05-07 15:47 48.52066 2.75880 7993 ft 232 kts 287°
2026-05-07 15:47 48.52576 2.73579 7738 ft 231 kts 287°
2026-05-07 15:48 48.53082 2.71291 7486 ft 230 kts 287°
2026-05-07 15:48 48.53588 2.69005 7235 ft 229 kts 287°
2026-05-07 15:48 48.54092 2.66722 6986 ft 229 kts 287°
2026-05-07 15:48 48.54592 2.64452 6739 ft 228 kts 287°
2026-05-07 15:49 48.55087 2.62209 6496 ft 227 kts 287°
2026-05-07 15:49 48.55584 2.59951 6237 ft 226 kts 287°
2026-05-07 15:49 48.56078 2.57705 5976 ft 225 kts 288°
2026-05-07 15:49 48.56568 2.55472 5713 ft 224 kts 288°
2026-05-07 15:50 48.57056 2.53250 5463 ft 222 kts 288°
2026-05-07 15:50 48.57541 2.51034 5202 ft 222 kts 288°
2026-05-07 15:50 48.58026 2.48822 4947 ft 221 kts 289°
2026-05-07 15:50 48.58507 2.46621 4689 ft 220 kts 289°
2026-05-07 15:51 48.58985 2.44431 4428 ft 219 kts 289°
2026-05-07 15:51 48.59463 2.42244 4168 ft 219 kts 289°
2026-05-07 15:51 48.59938 2.40065 3904 ft 218 kts 289°
2026-05-07 15:51 48.60410 2.37895 3646 ft 217 kts 289°
2026-05-07 15:52 48.60882 2.35731 3397 ft 217 kts 289°
2026-05-07 15:52 48.61352 2.33567 3144 ft 216 kts 289°
2026-05-07 15:52 48.61814 2.31438 3002 ft 207 kts 289°
2026-05-07 15:52 48.62252 2.29415 2993 ft 199 kts 289°
2026-05-07 15:53 48.62678 2.27452 2989 ft 195 kts 289°
2026-05-07 15:53 48.63097 2.25513 2985 ft 194 kts 288°
2026-05-07 15:53 48.63509 2.23610 2990 ft 192 kts 288°
2026-05-07 15:53 48.63923 2.21699 2990 ft 191 kts 288°
2026-05-07 15:54 48.64335 2.19790 2990 ft 190 kts 288°
2026-05-07 15:54 48.64721 2.17995 2989 ft 169 kts 288°
2026-05-07 15:54 48.65063 2.16407 2981 ft 149 kts 289°
2026-05-07 15:54 48.65383 2.15033 2985 ft 129 kts 300°
2026-05-07 15:55 48.65990 2.14159 2990 ft 121 kts 332°
2026-05-07 15:55 48.66928 2.13891 3025 ft 158 kts
2026-05-07 15:55 48.67933 2.14770 3027 ft 179 kts 51°
2026-05-07 15:55 48.68419 2.16533 2941 ft 187 kts 75°
2026-05-07 15:56 48.68715 2.18354 2685 ft 168 kts 75°
2026-05-07 15:56 48.69006 2.19990 2460 ft 155 kts 73°
2026-05-07 15:56 48.69292 2.21501 2255 ft 144 kts 73°
2026-05-07 15:56 48.69554 2.22921 2066 ft 135 kts 74°
2026-05-07 15:57 48.69799 2.24253 1886 ft 128 kts 73°
2026-05-07 15:57 48.70039 2.25549 1717 ft 129 kts 74°
2026-05-07 15:57 48.70290 2.26907 1540 ft 139 kts 73°
2026-05-07 15:57 48.70555 2.28345 1348 ft 144 kts 73°
2026-05-07 15:58 48.70827 2.29817 1148 ft 147 kts 73°
2026-05-07 15:58 48.71076 2.31172 959 ft 120 kts 73°
2026-05-07 15:58 48.71282 2.32293 801 ft 105 kts 73°
2026-05-07 15:58 48.71483 2.33374 666 ft 110 kts 72°
2026-05-07 15:59 48.71695 2.34520 517 ft 117 kts 72°
2026-05-07 15:59 48.71912 2.35700 342 ft 114 kts 73°
2026-05-07 15:59 48.72102 2.36720 293 ft 84 kts 75°
2026-05-07 15:59 48.72184 2.37180 288 ft 33 kts 75°
2026-05-07 16:00 48.72221 2.37380 293 ft 17 kts 73°
2026-05-07 16:00 48.72291 2.37504 289 ft 15 kts 29°
2026-05-07 16:00 48.72382 2.37552 290 ft 12 kts 19°
2026-05-07 16:00 48.72465 2.37595 292 ft 9 kts 18°
2026-05-07 16:01 48.72558 2.37640 292 ft 17 kts 17°
2026-05-07 16:01 48.72635 2.37678 291 ft 10 kts 20°
2026-05-07 16:01 48.72732 2.37730 290 ft 14 kts 18°
2026-05-07 16:01 48.72814 2.37771 290 ft 11 kts 19°
2026-05-07 16:02 48.72913 2.37821 290 ft 20 kts 18°
2026-05-07 16:02 48.73030 2.37878 292 ft 18 kts 17°
2026-05-07 16:02 48.73132 2.37928 291 ft 16 kts 19°
2026-05-07 16:02 48.73239 2.37983 290 ft 20 kts 17°
2026-05-07 16:03 48.73323 2.38020 289 ft 4 kts 342°
2026-05-07 16:03 48.73340 2.37913 291 ft 12 kts 291°
2026-05-07 16:03 48.73358 2.37857 291 ft 7 kts 327°
2026-05-07 16:03 48.73376 2.37862 289 ft 0 kts 21°